TimePST,TemperatureF,Dew PointF,Humidity,Sea Level PressureIn,VisibilityMPH,Wind Direction,Wind SpeedMPH,Gust SpeedMPH,PrecipitationIn,Events,Conditions,WindDirDegrees,DateUTC
12:01 AM,37.9,37.9,100,30.17,2.0,South,4.6,-,N/A,,Overcast,170,2013-01-05 08:01:00
12:24 AM,39.9,39.0,97,30.17,1.5,SSW,5.8,-,N/A,,Overcast,200,2013-01-05 08:24:00
12:34 AM,39.9,39.9,100,30.17,2.5,SSW,4.6,-,N/A,,Overcast,200,2013-01-05 08:34:00
12:54 AM,39.9,39.9,100,30.17,1.8,Calm,Calm,-,N/A,,Overcast,0,2013-01-05 08:54:00
1:09 AM,39.9,39.9,100,30.16,0.8,Calm,Calm,-,N/A,,Overcast,0,2013-01-05 09:09:00
1:19 AM,39.0,39.0,100,30.16,1.5,Calm,Calm,-,N/A,,Overcast,0,2013-01-05 09:19:00
1:30 AM,39.0,39.0,100,30.16,1.0,Calm,Calm,-,N/A,,Overcast,0,2013-01-05 09:30:00
1:37 AM,39.0,37.9,96,30.16,0.5,Calm,Calm,-,N/A,Fog,Fog,0,2013-01-05 09:37:00
1:54 AM,39.0,39.0,100,30.17,0.5,Calm,Calm,-,N/A,Fog,Fog,0,2013-01-05 09:54:00
2:08 AM,37.9,37.9,100,30.17,1.5,SSW,4.6,-,N/A,,Overcast,200,2013-01-05 10:08:00
2:22 AM,39.9,39.9,100,30.17,1.0,South,3.5,-,N/A,,Overcast,180,2013-01-05 10:22:00
2:30 AM,39.9,39.9,100,30.17,0.8,South,3.5,-,N/A,,Overcast,190,2013-01-05 10:30:00
2:37 AM,39.9,39.9,100,30.17,1.2,Calm,Calm,-,N/A,,Overcast,0,2013-01-05 10:37:00
2:54 AM,39.9,39.9,100,30.18,1.0,Calm,Calm,-,N/A,,Overcast,0,2013-01-05 10:54:00
3:07 AM,39.9,39.9,100,30.17,1.5,Calm,Calm,-,N/A,,Overcast,0,2013-01-05 11:07:00
3:21 AM,39.9,39.9,100,30.17,1.2,Calm,Calm,-,N/A,,Overcast,0,2013-01-05 11:21:00
3:28 AM,39.9,39.9,100,30.17,2.0,Calm,Calm,-,N/A,,Overcast,0,2013-01-05 11:28:00
3:46 AM,39.9,39.0,97,30.17,2.5,South,3.5,-,N/A,,Overcast,170,2013-01-05 11:46:00
3:54 AM,39.9,39.0,97,30.17,4.0,South,3.5,-,N/A,,Overcast,190,2013-01-05 11:54:00
4:54 AM,39.9,39.0,97,30.17,7.0,South,4.6,-,N/A,,Overcast,190,2013-01-05 12:54:00
5:54 AM,39.0,37.9,96,30.17,8.0,SSW,3.5,-,N/A,,Overcast,200,2013-01-05 13:54:00
6:54 AM,39.0,37.0,93,30.17,9.0,WSW,6.9,-,N/A,,Overcast,250,2013-01-05 14:54:00
7:54 AM,39.0,36.0,89,30.18,8.0,South,3.5,-,N/A,,Overcast,170,2013-01-05 15:54:00
8:54 AM,37.9,37.0,97,30.20,7.0,Calm,Calm,-,0.00,,Overcast,0,2013-01-05 16:54:00
9:54 AM,39.0,36.0,89,30.20,9.0,SW,11.5,18.4,0.00,,Overcast,230,2013-01-05 17:54:00
10:54 AM,39.9,36.0,86,30.20,9.0,SW,9.2,-,N/A,,Overcast,230,2013-01-05 18:54:00
11:54 AM,41.0,35.1,79,30.19,10.0,West,4.6,-,N/A,,Overcast,260,2013-01-05 19:54:00
12:54 PM,41.0,34.0,76,30.16,7.0,WSW,3.5,-,N/A,,Overcast,240,2013-01-05 20:54:00
1:54 PM,42.1,35.1,76,30.15,8.0,SW,4.6,-,N/A,,Overcast,230,2013-01-05 21:54:00
2:54 PM,42.8,35.6,76,30.14,8.0,West,4.6,-,N/A,,Overcast,260,2013-01-05 22:54:00
3:54 PM,41.0,35.1,79,30.15,7.0,WSW,4.6,-,N/A,,Mostly Cloudy,240,2013-01-05 23:54:00
4:54 PM,39.0,35.1,86,30.14,7.0,SSW,4.6,-,N/A,,Overcast,210,2013-01-06 00:54:00
5:54 PM,39.9,35.1,83,30.13,8.0,SW,4.6,-,N/A,,Overcast,230,2013-01-06 01:54:00
6:54 PM,39.0,37.0,93,30.14,5.0,WSW,5.8,-,0.03,Rain,Light Rain,250,2013-01-06 02:54:00
7:54 PM,39.0,37.0,93,30.14,4.0,WSW,5.8,-,0.01,Rain,Light Rain,240,2013-01-06 03:54:00
8:54 PM,39.0,37.9,96,30.14,7.0,SSW,6.9,-,0.01,,Overcast,200,2013-01-06 04:54:00
9:06 PM,39.0,37.9,96,30.13,6.0,South,5.8,-,N/A,,Overcast,180,2013-01-06 05:06:00
9:16 PM,39.0,37.0,93,30.14,6.0,SSW,4.6,-,0.00,Rain,Light Rain,200,2013-01-06 05:16:00
9:32 PM,39.0,37.0,93,30.14,7.0,SW,4.6,-,0.00,,Overcast,230,2013-01-06 05:32:00
9:54 PM,39.0,37.0,93,30.16,7.0,SW,4.6,-,0.00,,Overcast,230,2013-01-06 05:54:00
10:54 PM,39.0,37.0,93,30.16,8.0,SSW,5.8,-,N/A,,Overcast,210,2013-01-06 06:54:00
11:54 PM,39.0,37.0,93,30.18,8.0,South,8.1,-,N/A,,Overcast,190,2013-01-06 07:54:00